Theta_e
308 308 308 308 308 308 308 307 307 306 305 305 304 303 304 304 303 304 304 304 304 304 304 305 305 305 305 305 304 304 304 304 305 305 305 306 306 305 306 308 307 306 306 308 312 311 310 309 310 310 308 308 310 311 312 315 317 316 316 315 314 312 312 312 312 313 312 314 314 314 314 311 329 348 346 344 345 348 348 347 348 346 345 346 345 347 348 346
306 307 308 308 308 308 308 308 307 307 306 306 305 304 304 303 303 303 304 304 304 304 304 304 305 305 305 305 304 303 303 304 304 305 306 306 305 305 306 306 306 306 305 307 310 311 309 308 308 307 307 310 312 312 314 316 317 316 316 315 314 313 311 312 312 312 312 314 314 315 314 311 326 345 346 345 347 348 347 348 348 347 346 346 346 347 347 344
305 306 306 307 307 307 307 308 308 307 307 306 306 306 305 303 303 303 303 303 304 304 304 305 304 304 304 304 304 303 303 304 304 305 306 306 305 305 305 306 306 306 306 306 309 311 310 309 307 307 307 311 313 312 314 316 317 317 315 315 315 313 311 312 312 314 314 314 315 315 314 312 322 339 345 345 345 347 347 347 348 347 347 347 346 347 346 342
303 304 305 306 306 307 307 307 307 308 307 307 307 306 306 305 304 303 303 303 303 303 304 304 304 304 304 304 303 303 303 304 305 305 306 306 306 306 306 306 306 306 306 305 308 311 311 309 307 307 310 313 313 313 314 315 316 316 315 316 316 313 313 315 314 316 315 314 314 313 314 314 318 333 345 347 345 345 347 348 347 347 347 346 346 346 344 343
298 300 302 304 305 306 306 306 307 307 307 307 307 307 306 306 305 304 303 303 303 303 303 303 303 303 303 304 303 302 303 304 305 306 307 308 307 306 306 306 306 306 306 305 308 311 310 309 307 309 312 313 312 313 314 315 315 315 315 316 316 314 315 317 316 316 315 314 313 313 314 313 320 337 347 347 345 345 347 348 348 347 345 344 346 346 345 343
295 296 298 300 302 304 305 305 306 307 307 307 307 307 307 306 305 304 303 302 303 303 303 303 303 303 304 303 302 303 304 305 306 307 307 308 308 307 307 306 306 306 306 306 308 310 309 308 308 310 312 312 313 313 314 314 314 315 315 314 316 316 316 317 316 316 315 314 313 315 314 314 329 345 346 346 345 343 345 347 348 347 345 344 346 346 345 344
295 295 295 296 298 300 303 304 305 306 306 306 307 307 307 306 306 305 303 302 302 302 302 303 303 303 303 302 302 303 303 305 306 307 308 307 308 308 308 308 306 306 306 306 308 309 309 308 309 310 312 312 312 313 313 314 314 314 314 314 315 315 316 317 316 316 315 314 314 313 312 314 330 345 344 346 345 343 344 346 348 347 346 347 346 346 345 344
295 296 295 295 296 297 299 301 304 305 305 306 306 306 307 307 306 306 304 302 302 302 301 302 303 302 303 302 302 302 302 305 305 307 308 306 307 308 309 310 307 306 306 306 308 309 310 309 309 309 311 311 311 313 313 314 314 314 315 314 315 315 315 316 315 316 314 315 313 314 323 327 332 342 346 347 346 347 347 347 347 347 347 347 346 345 344 344
296 295 295 294 295 295 296 297 300 301 303 305 306 306 306 307 307 306 305 303 302 302 301 301 302 303 303 302 302 302 303 302 303 305 306 306 305 306 308 310 309 307 306 306 308 309 310 310 309 309 310 311 311 313 312 313 314 313 315 314 316 315 315 316 314 315 313 314 312 319 340 343 338 344 347 347 348 349 348 347 347 346 347 346 345 344 344 344
297 296 295 294 294 295 295 295 296 297 300 303 305 305 306 306 307 306 306 304 302 301 301 300 302 303 302 303 302 302 303 303 304 303 304 305 304 305 306 309 310 307 306 306 308 308 309 310 309 309 310 311 311 312 312 313 313 313 314 314 315 315 315 314 313 314 312 313 311 323 344 343 337 343 345 348 350 348 348 347 346 346 347 345 345 345 344 344
298 298 297 295 294 294 294 295 295 296 297 300 304 305 305 306 306 307 306 305 302 301 301 300 301 303 303 303 302 303 302 304 305 305 304 304 304 305 305 308 309 307 305 306 308 308 309 310 310 310 310 311 311 311 311 313 312 312 312 312 313 312 312 312 312 313 312 314 311 322 343 338 332 339 343 348 349 348 347 346 346 346 346 345 345 345 344 344
299 299 298 297 295 293 293 294 294 295 296 298 302 304 305 305 306 307 306 305 303 301 301 300 301 302 303 302 303 303 301 303 305 305 305 305 305 305 305 308 309 307 305 306 308 309 308 309 310 310 310 311 311 310 311 311 310 310 310 312 312 311 312 312 312 312 312 314 312 321 338 334 329 337 345 349 349 349 347 346 346 345 346 345 345 344 342 341
299 299 299 299 298 295 293 293 293 295 296 297 300 302 304 304 305 306 306 306 304 302 301 300 300 302 302 302 303 300 301 301 303 305 306 306 305 305 306 308 309 307 306 306 309 309 309 309 309 310 309 310 310 310 310 309 309 310 310 311 313 312 313 313 311 311 312 313 315 322 327 325 327 337 347 349 348 348 345 344 344 345 345 344 344 342 339 337
299 299 299 299 299 297 295 294 294 294 295 297 298 301 303 303 304 305 306 306 304 303 301 300 300 302 302 302 300 298 300 300 301 303 304 305 305 305 307 308 308 307 306 306 308 310 310 307 307 308 309 309 309 309 309 308 309 311 310 311 312 313 313 313 310 311 313 312 316 323 320 317 330 342 347 347 347 345 339 339 343 344 341 341 344 341 339 338
299 299 299 299 299 299 297 295 295 295 295 297 298 300 302 303 304 305 306 306 305 303 302 300 299 301 302 302 299 299 300 299 301 302 302 303 304 305 306 308 307 307 306 307 309 311 311 309 307 308 308 308 308 309 309 309 309 310 312 312 310 312 313 312 311 311 314 313 314 320 317 317 332 341 340 338 339 337 333 335 340 342 339 340 342 341 341 339
299 299 299 299 299 299 299 297 296 296 296 296 297 299 300 302 303 304 306 306 305 303 301 300 300 300 301 302 300 300 301 301 302 302 302 302 304 305 305 307 307 307 307 308 310 311 311 310 309 309 308 307 308 309 310 310 310 309 312 314 311 311 313 312 311 310 312 313 313 315 316 321 333 338 335 332 331 331 331 333 333 336 338 337 338 339 341 339
298 298 298 299 299 300 300 298 297 297 296 296 297 298 300 301 302 304 305 305 304 303 301 300 300 300 302 301 301 302 302 302 303 303 303 302 304 304 305 306 306 308 308 308 310 310 309 309 308 308 307 307 308 309 311 311 312 310 311 313 310 311 312 312 312 310 310 312 313 315 317 327 336 337 334 331 330 330 331 332 331 332 335 336 338 341 341 338
298 298 298 298 299 299 299 298 297 297 297 297 297 298 299 300 302 303 304 304 304 303 301 300 300 301 302 300 301 302 301 302 303 303 304 303 304 304 305 305 305 308 308 308 308 307 307 307 307 308 307 307 307 309 312 312 312 311 312 312 311 311 310 311 312 309 310 312 314 315 318 330 338 337 333 331 331 331 331 333 334 333 333 335 336 338 339 338
298 298 298 298 298 299 299 298 298 298 298 297 297 297 299 300 302 304 304 304 303 302 301 301 300 301 301 300 299 301 300 301 302 303 304 303 304 304 305 304 305 308 309 308 308 306 306 306 306 307 307 307 307 309 311 311 311 310 312 313 312 311 310 312 311 309 311 315 319 320 320 329 339 338 333 332 332 332 332 334 336 334 333 335 332 333 336 339
298 298 298 297 298 298 299 298 298 298 298 298 297 297 299 301 303 303 303 303 303 302 301 301 301 300 301 300 299 300 300 301 302 303 304 304 304 304 305 304 306 308 309 308 308 307 306 306 306 307 307 307 306 309 310 309 310 310 311 311 311 311 312 311 309 311 313 317 325 324 325 331 339 338 333 333 333 333 334 335 336 334 334 336 333 334 338 341
299 299 298 297 298 298 299 299 298 298 298 298 298 298 300 302 302 302 302 302 302 303 301 300 300 300 300 299 299 299 300 301 302 303 305 304 304 305 304 305 306 308 308 309 309 307 306 307 307 306 306 305 306 310 311 309 308 310 311 311 311 310 312 310 310 319 319 316 325 327 330 334 335 335 334 334 333 333 334 335 335 334 336 336 334 337 340 341
299 299 298 298 298 298 298 298 298 298 298 298 298 298 300 301 301 301 301 301 301 302 301 300 300 300 298 298 298 298 300 301 302 303 304 304 304 305 305 305 306 307 307 309 309 307 306 307 307 306 305 305 307 310 311 310 309 310 310 311 311 310 311 310 314 326 324 318 326 329 332 334 332 333 334 334 333 332 333 335 334 335 336 335 336 338 338 339
299 299 298 298 298 298 298 298 298 298 298 298 298 298 300 301 301 301 300 300 300 300 300 300 300 300 299 299 299 299 301 302 302 303 304 304 304 305 305 306 306 307 307 309 310 309 308 308 307 305 305 306 307 308 310 310 310 310 310 310 311 309 310 310 319 329 327 323 327 329 332 333 332 333 334 333 333 332 332 333 333 334 334 333 335 338 337 338
299 298 298 298 298 298 298 298 298 298 298 298 298 299 300 301 300 300 300 299 299 299 300 300 300 300 299 299 300 300 301 301 302 303 304 305 305 305 305 306 306 307 308 309 310 309 309 309 307 304 305 306 307 307 309 310 310 310 310 310 310 310 309 310 318 327 327 326 327 325 326 330 333 335 335 333 333 333 333 332 332 333 333 332 334 337 337 338
299 298 298 298 298 298 298 298 297 297 298 298 299 300 301 301 300 300 300 299 299 299 299 299 299 299 298 299 300 300 301 301 301 302 303 305 305 305 305 306 307 307 308 309 310 310 310 308 306 304 306 307 306 307 308 309 310 309 309 309 309 310 309 311 318 322 320 321 325 320 315 326 333 334 336 334 333 334 333 332 332 331 332 333 335 335 334 336
299 299 298 298 298 298 298 298 298 298 299 299 300 300 300 300 300 300 300 300 300 300 300 300 300 300 299 299 300 301 302 302 302 302 303 305 305 305 306 306 307 307 307 309 310 310 309 307 306 306 306 307 307 307 307 308 310 309 310 309 309 309 309 312 314 315 314 314 319 318 313 326 333 334 336 334 333 335 333 332 331 330 331 334 335 334 333 335
299 299 299 299 299 299 299 299 299 299 299 300 300 300 299 299 300 300 300 299 300 301 301 300 300 300 301 301 300 301 302 302 303 303 303 305 305 305 306 306 307 306 306 309 310 310 308 307 307 307 307 306 307 307 306 308 309 309 310 309 308 309 309 311 311 311 313 312 314 319 318 325 332 333 334 333 334 336 334 332 331 331 331 332 332 333 333 336
298 298 299 299 299 299 299 298 298 299 299 299 299 299 299 299 300 300 300 300 300 301 302 301 300 300 302 301 301 302 302 302 303 304 303 305 306 305 306 306 307 306 306 309 311 309 308 308 308 308 308 308 308 308 306 307 309 309 309 308 308 309 309 310 311 311 313 311 312 320 321 320 327 333 333 333 335 337 334 331 332 332 331 330 331 333 334 335
298 298 298 299 299 299 299 298 298 299 299 299 299 300 299 299 301 301 300 301 300 300 302 302 301 302 302 302 302 302 302 302 303 304 304 304 305 305 306 306 306 306 305 309 310 308 308 309 308 309 309 309 309 308 306 307 309 308 307 308 309 310 310 311 311 311 312 312 311 318 321 316 322 333 335 334 335 335 333 331 331 333 331 331 331 332 333 332
297 298 298 299 299 299 299 299 299 299 299 299 299 300 300 300 301 301 301 302 302 301 302 302 302 303 303 302 302 302 302 302 303 303 304 304 305 305 305 306 306 306 306 308 309 307 308 309 309 309 310 310 309 307 307 308 308 307 307 309 309 309 311 311 312 312 311 313 311 316 323 316 317 330 335 333 334 333 332 331 331 331 331 332 331 331 332 330
297 297 298 298 298 299 299 299 299 299 299 299 299 299 300 301 301 301 302 302 303 304 302 301 302 303 303 302 302 301 301 302 303 304 304 305 305 304 305 306 306 306 306 308 309 306 307 309 309 309 309 309 308 306 307 307 307 308 309 310 310 311 311 311 312 312 311 313 312 313 322 317 313 325 333 331 331 331 331 331 330 330 330 331 330 330 329 328
297 296 297 298 298 299 299 299 299 298 299 299 299 300 301 302 301 301 302 303 305 306 304 303 303 303 303 303 302 301 301 302 303 304 305 305 305 305 306 307 307 307 307 308 309 306 307 308 307 308 310 309 309 308 307 306 307 310 310 310 311 311 311 311 312 312 312 313 312 312 320 319 315 324 330 329 330 330 331 331 330 330 331 330 329 327 326 326
298 297 297 297 298 298 298 299 298 298 299 299 299 300 301 302 301 301 301 304 307 307 306 305 304 304 303 303 303 301 301 302 303 304 305 306 305 305 305 306 306 308 307 308 308 307 307 307 306 308 310 309 310 310 308 307 308 309 310 310 311 311 311 312 311 311 312 313 313 313 318 320 321 326 327 327 329 331 331 331 331 330 330 328 326 325 324 324
299 297 297 297 297 297 298 298 298 298 299 300 300 300 301 302 302 303 303 305 306 305 306 306 305 304 304 304 303 301 301 302 303 304 305 306 306 306 305 305 305 306 307 308 308 308 308 308 307 309 310 310 311 310 309 309 308 309 310 310 311 311 311 311 311 311 312 314 316 317 318 322 326 327 326 327 329 331 332 331 330 329 328 326 324 324 324 324
299 298 297 297 297 297 297 298 298 298 299 300 300 301 302 302 302 304 305 305 305 305 305 305 305 305 304 304 303 302 302 303 303 304 305 306 306 307 306 305 305 306 307 308 308 308 309 308 307 308 309 310 310 310 309 309 309 308 308 309 311 312 313 312 311 312 314 315 317 319 321 324 326 326 326 328 329 330 330 329 327 326 325 324 324 323 324 324
299 298 297 297 297 297 297 298 298 298 299 301 301 301 302 303 303 305 305 304 305 305 305 305 306 306 306 305 303 302 302 302 304 305 305 306 306 306 306 305 304 305 308 309 308 307 308 308 307 306 308 309 310 309 308 310 311 308 308 310 310 310 314 314 311 311 313 313 316 321 324 325 326 327 328 329 329 329 328 327 326 324 324 324 323 323 323 323
298 298 298 299 298 297 298 299 298 299 300 301 301 301 302 302 303 304 303 304 304 304 306 307 306 306 307 306 303 302 303 302 304 305 304 306 306 306 305 304 304 305 307 308 308 307 308 308 307 306 307 309 310 310 309 310 310 309 309 310 309 309 312 314 312 312 312 312 317 321 325 326 327 330 331 330 330 329 328 326 324 324 324 324 323 323 323 323
299 299 299 299 299 298 298 299 299 299 301 301 300 301 303 303 303 303 303 304 304 304 306 308 308 306 306 305 303 302 303 303 304 305 305 306 306 306 305 303 304 305 306 307 308 308 308 308 307 308 308 308 309 309 310 309 308 309 310 310 311 311 311 312 313 313 313 313 318 322 324 325 326 330 332 332 331 330 328 326 324 323 324 324 323 323 322 322
300 300 300 299 299 299 299 299 299 300 301 301 301 302 303 303 304 304 303 303 304 304 306 308 309 307 306 305 303 302 303 304 304 304 305 306 305 305 305 304 304 304 305 307 308 308 309 309 308 308 308 308 309 310 311 310 308 310 310 310 310 311 312 312 313 313 314 315 319 323 324 324 324 328 331 331 329 329 329 327 325 324 324 323 322 322 321 321
300 300 300 300 299 300 300 300 300 301 302 302 302 302 303 303 303 304 303 304 304 305 306 307 307 308 308 305 303 303 303 303 304 305 305 305 305 305 305 305 304 304 305 307 308 308 310 310 309 308 307 308 309 310 311 311 309 310 311 310 311 311 311 312 312 312 313 315 317 319 322 323 323 324 329 330 328 327 327 326 325 324 323 323 322 321 321 320
300 301 300 300 300 300 300 301 301 302 302 302 302 302 302 302 303 304 304 304 304 304 305 305 305 307 308 306 303 303 303 304 304 304 305 305 305 305 305 305 305 304 304 306 308 309 310 310 310 309 308 308 310 310 310 311 310 310 311 311 311 311 311 311 312 312 314 317 317 317 318 321 322 322 326 329 328 327 327 325 324 323 323 322 321 321 320 320
301 301 300 300 301 301 301 301 301 302 302 301 302 302 302 303 304 304 305 305 305 305 305 305 305 306 307 307 306 304 304 304 304 304 305 306 306 307 305 305 306 305 305 307 308 309 312 313 312 310 309 309 309 309 309 310 310 310 311 311 311 312 312 310 311 313 315 316 318 317 315 319 322 321 323 327 328 327 326 325 324 323 322 321 320 320 320 319
302 301 301 301 301 301 301 301 302 302 302 301 302 302 303 303 304 304 305 305 305 306 306 306 306 307 307 308 308 306 304 305 305 305 305 306 306 306 305 305 305 305 307 307 307 310 313 313 312 310 309 309 309 309 308 309 309 310 311 311 311 312 313 312 314 315 315 316 318 316 314 320 323 321 324 328 327 326 325 324 323 321 320 320 319 319 319 318
301 302 301 301 301 300 301 302 303 303 303 303 303 303 303 304 304 305 305 305 306 306 306 307 307 308 308 308 308 308 306 306 305 304 305 307 306 304 303 305 305 305 307 307 309 312 311 310 312 311 310 310 311 310 309 308 308 310 312 311 310 312 313 314 315 314 314 316 318 313 314 323 324 322 325 327 325 325 324 323 322 320 319 319 318 318 317 317
301 302 302 301 301 300 301 302 303 303 303 303 303 303 304 304 304 305 305 305 306 306 307 307 307 307 308 308 309 309 307 307 305 305 305 306 307 305 303 304 306 306 306 307 310 311 310 311 312 311 310 311 312 312 312 310 309 310 312 310 309 312 313 314 315 313 312 317 318 314 317 324 324 323 325 325 323 323 323 321 321 319 319 318 317 317 316 315
302 302 302 302 302 301 301 302 302 302 302 303 303 304 305 305 305 305 304 305 306 307 307 307 307 308 308 310 312 310 309 309 307 306 307 308 311 309 305 303 305 306 307 309 310 313 313 312 314 316 314 312 312 314 314 312 310 310 312 311 310 311 313 315 315 313 313 317 318 317 322 326 326 324 326 324 322 322 321 320 320 319 318 318 316 316 315 314
302 302 302 302 303 302 302 302 302 302 303 303 304 305 305 306 307 307 306 306 307 307 307 307 308 310 310 312 315 312 311 311 307 306 309 311 313 311 306 304 305 306 311 313 311 313 314 310 312 321 322 315 314 314 313 313 312 311 313 313 311 312 315 316 315 316 318 316 317 321 325 330 329 324 325 325 321 321 321 319 319 318 317 317 316 315 314 313
303 303 303 303 303 303 303 303 303 303 303 304 304 304 306 306 307 308 307 307 308 307 307 309 310 309 308 310 313 314 314 311 309 309 311 313 314 312 307 305 305 308 314 314 311 315 316 309 311 319 320 316 315 314 314 318 317 314 316 316 313 312 315 315 315 319 319 313 316 324 326 329 328 323 323 324 322 321 320 319 318 317 316 315 315 314 313 312
303 304 303 303 304 304 304 304 304 304 305 306 305 305 306 307 307 308 307 307 308 307 308 310 310 307 307 308 311 315 315 312 311 312 313 315 317 315 310 308 307 310 314 313 312 315 313 310 315 319 320 318 316 314 315 319 319 319 319 319 318 315 315 316 317 320 321 319 324 328 327 326 324 323 323 323 322 321 319 318 317 316 315 315 314 313 312 312
301 301 302 302 303 304 305 305 306 306 306 307 307 307 307 307 308 308 307 307 309 308 308 310 309 307 308 309 311 314 314 313 313 315 315 317 318 317 316 313 310 311 313 312 311 312 310 312 317 319 318 319 318 316 315 317 320 322 319 316 317 316 315 318 320 319 320 324 325 325 327 326 322 322 323 322 320 320 318 317 317 315 315 314 313 312 311 311
300 300 300 301 302 304 306 305 305 306 306 307 307 307 308 308 308 308 307 306 308 308 307 307 307 308 309 311 312 313 312 311 313 314 315 316 315 316 317 315 312 312 313 313 313 313 312 314 316 316 313 318 320 317 316 317 318 321 321 319 318 315 314 318 319 316 319 325 324 322 325 324 322 322 322 320 319 319 317 317 316 315 314 314 313 312 311 311
300 301 301 301 302 304 305 305 305 306 307 307 307 308 308 308 308 308 308 306 306 307 305 305 307 308 311 313 312 312 311 312 313 313 313 314 313 314 314 313 311 311 313 314 314 315 315 316 316 314 311 316 320 318 317 318 317 317 319 318 318 318 317 319 319 317 319 323 322 322 323 323 321 321 320 319 319 318 317 317 316 315 314 314 313 312 312 312
Wind_Speed
16 16 15 16 17 17 17 16 16 18 17 15 15 14 13 13 12 13 14 14 14 15 13 14 15 15 16 16 17 18 18 19 17 17 20 18 17 18 15 10 12 16 14 11 12 10 9 9 10 11 10 11 10 12 13 11 12 9 3 4 5 4 4 4 5 4 0 3 5 6 7 6 4 3 7 9 12 16 14 9 12 11 9 19 22 29 34 28
19 17 16 16 16 17 18 17 17 18 19 18 16 15 15 14 13 13 14 14 14 15 13 13 15 15 16 16 17 17 17 17 18 20 19 18 17 16 18 17 14 15 15 13 13 12 10 9 9 12 13 12 9 12 13 11 12 7 1 4 5 3 3 3 4 2 3 5 9 9 7 7 3 4 6 7 12 15 13 9 10 13 16 20 25 32 32 29
22 20 18 18 17 16 17 18 17 18 18 18 16 16 15 15 14 13 14 14 14 14 15 14 15 15 16 16 16 16 15 16 18 19 18 19 19 15 17 21 20 18 16 13 13 14 11 8 9 13 15 11 9 13 12 11 11 5 3 5 4 4 2 4 7 7 9 9 9 9 8 8 3 4 5 8 13 14 12 13 15 18 20 24 31 34 31 30
23 23 22 21 20 19 18 18 17 18 17 17 17 17 16 15 14 14 14 14 14 13 14 15 15 15 15 15 15 12 12 13 12 14 15 15 14 16 18 20 23 22 19 16 13 13 12 9 10 15 15 7 8 12 9 11 10 4 5 4 1 5 4 6 9 11 12 9 7 8 9 7 4 4 10 13 13 10 12 16 20 27 29 31 36 34 31 29
20 22 24 24 24 22 20 19 19 18 18 18 17 17 17 17 16 14 14 14 14 13 13 14 14 15 14 14 13 7 5 6 4 9 11 10 12 16 19 20 23 25 22 19 15 14 12 11 13 16 11 4 7 8 7 12 10 4 4 2 2 4 3 5 7 9 8 7 6 7 8 7 5 5 13 18 13 6 11 14 15 28 37 38 39 35 31 28
18 19 21 23 25 25 23 22 21 19 19 19 18 17 18 18 17 16 15 13 13 14 13 13 14 14 14 14 12 5 3 3 4 9 8 7 10 12 17 21 23 26 25 21 17 15 15 14 15 14 7 4 7 6 6 13 11 5 2 2 5 7 5 7 8 9 9 8 7 6 7 7 2 5 11 17 13 5 8 12 11 23 34 37 37 34 29 28
18 17 18 20 23 25 25 25 23 20 20 19 19 19 18 18 18 18 17 14 13 15 14 13 14 13 15 14 11 6 9 12 7 9 7 4 4 6 12 18 22 26 27 25 21 18 18 18 16 13 8 4 6 6 7 12 10 7 3 2 5 8 8 10 12 12 14 13 12 10 9 7 6 7 9 12 11 6 9 13 14 21 27 29 29 28 26 26
18 17 18 18 19 21 24 27 26 23 21 20 20 20 19 18 18 19 18 16 15 15 14 12 13 13 14 14 11 9 14 20 15 11 7 3 5 4 4 12 20 25 28 28 25 22 21 20 18 15 8 3 6 8 7 9 7 7 5 2 3 5 8 11 13 15 16 16 14 9 5 5 7 7 7 7 6 5 9 15 18 21 24 24 23 23 24 25
19 18 18 18 18 19 20 23 26 26 24 21 21 21 20 18 17 18 18 18 17 16 14 12 11 13 13 13 11 9 15 21 18 17 14 11 10 7 5 5 17 24 28 29 25 23 22 22 21 16 7 5 9 9 9 8 5 6 7 4 4 6 8 10 12 15 14 12 8 2 1 2 5 5 4 4 6 9 12 18 21 23 25 22 21 22 23 24
21 19 18 18 18 18 18 19 22 25 25 23 21 20 20 19 18 17 18 19 18 16 15 11 10 12 12 11 7 5 12 13 13 19 19 18 15 11 9 5 14 23 27 29 25 23 23 22 22 15 7 7 9 8 8 8 3 5 8 8 9 9 10 9 10 14 12 11 9 5 5 4 4 3 4 5 10 14 17 20 22 25 25 21 20 19 20 21
22 20 19 18 18 19 19 18 19 21 23 23 21 20 19 20 19 17 17 17 17 16 15 12 10 11 12 11 7 8 9 6 5 11 16 17 14 11 9 8 11 23 26 29 26 24 22 20 20 14 5 7 9 6 5 6 3 4 6 6 7 8 10 10 10 13 10 8 9 10 7 2 1 3 5 9 15 17 20 22 23 25 23 21 20 18 17 19
21 21 21 20 19 19 19 19 18 18 20 21 22 20 19 20 20 18 17 16 16 17 16 12 9 11 12 13 17 15 7 5 6 7 9 11 11 9 8 7 10 22 26 28 27 24 19 15 20 14 4 8 9 4 4 6 4 3 3 3 3 3 7 9 8 9 6 4 7 12 5 4 4 3 4 13 18 20 22 23 23 24 24 22 22 20 15 15
21 21 21 21 20 19 19 19 19 18 18 19 21 21 20 19 19 19 18 14 15 16 16 13 10 12 12 16 25 18 10 10 12 10 7 7 9 9 8 5 8 20 24 26 26 25 19 13 17 14 6 8 5 3 5 5 3 3 3 1 2 3 5 7 5 4 5 5 7 13 4 5 4 2 6 16 20 24 22 20 21 21 22 22 22 19 13 11
20 21 21 21 20 19 19 19 19 18 18 18 19 21 20 19 19 20 19 15 14 15 16 14 11 11 11 20 26 18 14 15 16 14 10 8 8 9 9 6 6 16 22 21 23 24 20 15 14 11 7 6 4 4 4 2 2 3 3 1 1 4 3 3 2 5 6 4 8 10 4 2 3 2 6 11 19 24 17 15 23 23 19 19 21 17 13 14
20 20 20 20 20 20 19 19 19 18 18 18 18 20 20 19 18 19 19 17 14 14 15 15 13 11 12 23 24 14 12 14 15 15 13 12 9 8 9 9 8 14 19 19 20 23 21 16 11 7 5 4 4 4 2 1 1 1 4 3 1 3 2 1 2 6 6 2 6 6 4 1 4 6 7 6 10 16 12 8 18 25 22 18 20 18 16 18
20 20 20 20 20 20 19 19 19 18 18 18 18 19 20 19 17 18 19 18 15 14 14 12 10 8 8 14 15 8 8 10 9 9 11 13 11 9 8 9 10 13 17 17 17 20 19 14 9 6 4 3 3 4 3 3 2 1 4 3 2 4 3 1 2 3 4 2 4 2 2 1 5 9 9 10 15 21 19 12 6 9 17 14 13 16 19 21
21 21 21 21 20 20 18 18 19 18 17 18 18 18 19 17 16 18 20 19 16 13 12 9 6 7 10 11 10 8 7 7 6 5 9 12 12 13 12 10 11 14 16 16 15 16 15 11 9 7 3 2 3 5 5 6 5 3 2 2 1 4 4 2 3 1 3 2 3 2 2 3 7 9 12 13 15 17 19 14 5 4 9 11 12 15 18 19
22 22 22 22 21 20 19 18 18 17 17 17 17 18 18 16 14 17 21 20 15 10 9 9 4 4 9 11 11 11 11 8 6 7 9 12 13 15 16 11 10 16 17 15 12 13 13 8 6 4 3 3 4 7 7 5 5 5 6 5 2 3 4 3 2 2 2 1 3 3 4 5 7 10 15 15 17 21 19 19 18 8 3 4 9 15 14 13
22 22 22 22 22 20 19 18 18 17 17 17 17 17 16 15 14 16 19 19 14 7 4 9 13 6 4 4 6 10 13 11 7 6 8 12 14 15 17 12 13 18 16 10 8 10 10 5 4 6 6 8 7 8 6 3 6 8 7 6 4 5 4 3 1 3 2 3 5 1 2 7 7 10 14 13 16 23 22 25 30 24 13 4 9 16 11 10
21 21 21 21 20 19 19 18 18 17 17 17 16 15 14 13 10 10 14 17 18 17 8 9 19 18 14 12 12 13 11 9 7 6 7 12 15 16 17 15 14 15 10 8 8 9 10 6 6 8 8 9 8 7 5 3 5 7 5 5 3 5 5 1 1 4 2 2 5 4 5 8 7 8 11 14 16 18 21 25 28 26 21 16 15 14 10 11
21 20 20 20 19 18 18 17 18 17 16 16 15 13 13 13 9 4 7 12 19 24 21 17 18 21 24 24 23 21 15 9 8 8 8 13 17 16 16 16 12 8 6 9 9 7 9 7 6 6 7 10 8 6 7 4 4 5 5 5 3 4 3 0 2 5 3 1 3 4 9 8 5 7 9 13 13 10 15 22 21 18 20 22 17 11 11 13
20 18 18 18 17 17 17 17 17 17 16 16 15 15 15 15 12 7 4 5 12 19 23 23 22 25 30 30 29 27 16 10 12 9 9 15 18 14 14 14 9 6 6 9 8 6 7 6 6 7 8 10 8 6 7 6 4 3 3 4 5 3 1 1 3 7 4 0 4 6 9 8 4 6 9 10 9 8 11 16 19 20 17 15 14 12 12 12
18 17 18 17 17 17 16 16 16 16 16 16 16 18 17 17 15 10 4 3 8 14 20 22 24 27 30 30 28 24 13 9 12 10 11 16 17 14 14 11 8 8 8 9 9 8 6 5 7 8 10 12 8 7 7 5 3 2 2 4 5 2 0 2 2 6 6 4 5 9 9 7 5 6 7 8 9 9 8 7 12 16 13 11 14 14 11 12
17 17 17 16 16 16 15 15 15 15 15 15 16 17 18 18 14 8 5 3 6 10 18 22 24 27 30 26 20 18 17 14 11 10 11 15 16 14 13 11 9 9 8 8 10 8 4 7 10 9 11 14 10 8 9 7 4 1 2 4 3 3 1 0 2 2 4 6 5 8 6 4 4 6 5 6 9 9 8 9 10 8 11 14 19 16 11 15
17 18 17 15 15 15 14 14 13 13 13 13 13 14 16 16 12 8 6 4 5 4 10 17 20 26 29 21 14 13 12 14 19 15 10 15 18 12 9 11 9 9 9 9 9 7 4 8 14 12 10 13 11 9 10 10 6 3 3 5 3 3 3 3 2 1 2 3 2 1 2 2 2 6 7 5 8 9 10 12 10 8 12 16 20 18 11 15
17 17 17 14 14 13 12 10 10 11 9 10 12 13 15 12 8 9 7 2 4 4 4 10 13 15 19 18 18 13 4 9 20 18 12 15 19 12 9 8 4 6 10 9 6 3 3 8 12 12 11 12 11 8 9 9 7 5 4 5 3 3 4 3 2 1 1 2 1 2 3 2 2 6 8 6 8 9 10 13 12 12 18 22 24 19 13 17
17 16 16 14 13 12 10 9 8 7 6 9 11 12 11 9 8 8 7 2 4 6 5 8 10 7 11 19 24 16 2 3 10 16 18 17 18 12 8 8 5 5 6 5 4 2 6 10 9 11 12 10 10 8 7 9 8 4 3 7 6 4 4 3 1 1 1 1 2 1 2 1 2 5 7 8 10 9 9 11 13 15 21 26 25 21 23 26
16 15 15 13 12 12 10 7 4 1 2 4 8 10 8 7 10 8 4 2 1 5 4 7 8 5 9 19 29 19 2 5 8 12 20 19 16 10 6 8 9 9 7 6 7 2 5 11 10 11 11 8 7 7 8 11 7 3 4 7 7 5 4 3 2 1 2 0 2 2 3 2 2 4 7 10 10 9 10 12 15 16 19 22 22 23 30 29
15 14 13 12 13 13 10 5 2 5 6 5 5 7 5 6 9 4 2 2 2 2 2 7 7 5 9 16 24 18 4 2 4 11 21 18 14 6 2 8 11 12 7 3 6 3 3 12 13 11 9 7 6 6 11 12 5 3 7 6 4 3 3 1 3 2 2 2 4 6 7 4 2 4 7 9 9 11 12 12 15 18 19 20 21 27 31 27
13 13 11 10 13 11 8 2 3 5 6 5 3 4 3 4 4 1 2 1 1 1 3 7 6 7 13 13 13 14 5 2 3 13 16 13 13 5 5 13 13 9 5 2 7 4 2 10 13 8 6 7 7 8 10 9 7 9 9 7 5 3 2 2 0 1 2 4 4 8 10 6 3 5 9 9 9 13 14 12 14 19 21 21 22 27 30 26
12 12 10 9 10 7 6 5 3 4 4 3 3 4 4 3 2 2 3 0 2 1 3 4 5 10 15 12 8 10 6 2 5 12 11 9 10 5 7 13 9 6 6 6 7 3 4 8 7 4 6 9 8 7 4 3 9 11 7 6 5 2 2 2 2 1 5 5 1 4 7 7 5 4 9 11 9 11 15 16 17 20 23 22 20 18 18 20
11 10 9 8 7 5 3 3 3 2 2 3 4 6 4 2 2 2 2 2 1 1 2 3 5 9 14 10 5 8 6 1 5 10 11 10 8 5 6 8 7 7 8 9 7 4 5 5 1 3 10 13 10 7 4 2 7 8 6 8 7 4 4 4 4 3 5 2 2 0 4 5 4 1 5 10 9 9 16 19 21 25 25 21 17 13 13 16
9 9 8 7 6 4 3 2 2 1 2 3 4 5 2 1 1 2 3 2 1 1 3 2 4 7 11 8 5 8 5 1 5 7 10 10 7 5 3 2 5 4 4 8 8 5 4 2 3 5 7 11 12 10 7 5 8 9 8 10 9 6 6 6 5 2 2 1 2 0 4 4 2 3 2 6 6 9 17 21 23 25 24 20 19 19 19 18
9 9 7 6 6 4 4 3 2 1 1 3 4 3 2 2 1 1 1 3 2 2 5 3 3 7 9 5 5 9 4 2 7 8 9 10 8 8 5 3 4 4 6 7 5 7 7 3 6 7 4 9 12 9 7 7 7 6 4 6 7 5 4 5 5 3 2 3 2 2 3 3 2 2 2 3 4 10 19 21 21 20 18 20 23 24 24 24
8 8 5 4 5 4 4 3 2 2 2 3 2 1 3 2 2 2 1 3 3 4 8 4 4 8 7 3 4 10 6 1 7 8 7 9 9 8 8 5 4 4 9 9 2 5 6 2 4 5 4 11 12 5 7 10 7 2 1 3 5 4 3 1 1 1 2 2 2 3 2 1 0 2 1 5 10 15 20 21 20 18 18 21 23 25 27 27
6 4 3 2 3 3 2 1 1 2 4 4 1 2 3 2 2 2 3 3 3 6 9 2 6 5 5 3 4 11 9 2 8 8 5 7 7 6 6 4 3 5 8 7 2 2 5 3 2 2 3 10 12 10 9 10 7 3 3 6 3 2 3 2 1 2 1 3 3 3 1 1 1 1 4 11 12 14 17 18 19 19 20 21 21 24 26 24
4 1 2 2 1 1 1 0 1 3 4 3 2 1 1 1 1 2 3 4 4 5 6 1 5 2 5 5 4 10 9 3 7 6 5 7 5 5 7 3 2 5 6 5 2 1 4 4 2 5 7 8 10 15 11 7 6 5 7 7 4 2 1 1 2 1 2 5 2 2 4 5 4 2 8 13 13 14 14 14 17 19 21 22 21 24 25 24
4 2 4 4 2 2 1 1 2 4 4 3 3 3 1 2 2 1 2 4 3 4 4 1 1 0 5 5 3 9 9 5 7 7 6 7 3 5 9 5 3 5 5 5 3 1 3 4 2 7 11 7 7 11 9 3 1 3 6 7 4 3 4 3 3 3 4 4 2 3 5 6 5 5 10 15 16 16 16 15 16 18 22 23 22 22 23 24
3 2 5 6 4 3 2 1 3 4 4 2 3 3 1 2 4 3 3 4 3 3 3 1 2 1 3 4 5 7 6 5 9 7 5 5 2 4 9 6 4 5 5 6 4 1 2 3 3 3 5 7 6 7 9 7 2 1 6 7 2 2 4 3 2 2 3 4 2 3 4 4 5 8 14 18 19 21 21 17 16 20 23 23 21 22 23 22
3 1 4 6 5 3 2 1 3 4 3 2 2 2 1 2 4 5 6 5 3 3 2 3 3 2 0 1 5 6 2 5 8 4 3 5 2 2 7 6 7 7 5 5 4 2 1 1 4 3 1 4 6 7 9 11 8 6 8 9 4 0 1 2 2 1 1 3 2 2 3 3 3 6 14 19 19 21 22 18 17 22 24 22 21 23 22 21
5 1 3 5 3 2 2 2 3 3 2 3 3 3 2 3 4 5 7 7 6 5 4 4 3 2 1 1 4 5 3 5 6 2 2 6 3 1 7 9 10 8 5 5 4 2 1 1 3 4 4 6 5 4 7 11 11 9 8 8 7 4 3 4 4 2 1 0 2 1 2 1 1 1 6 12 15 18 21 19 18 22 24 22 22 22 22 23
6 1 1 3 1 2 5 3 2 2 2 3 3 3 5 5 5 4 5 7 8 6 4 4 4 3 2 1 2 4 4 3 4 3 3 7 5 3 10 16 17 14 7 4 4 3 2 2 2 3 4 5 2 1 4 10 10 8 7 8 7 5 6 8 6 4 3 1 2 1 1 1 1 2 3 7 12 17 22 22 20 22 23 21 21 22 23 23
5 3 3 2 4 4 5 2 2 2 3 3 3 5 6 5 4 3 3 4 5 4 3 3 4 4 3 2 1 3 5 2 1 3 4 7 5 4 14 24 22 16 9 3 3 4 3 1 3 4 2 1 1 2 1 6 7 7 8 7 7 6 5 4 2 4 5 5 4 2 3 1 2 2 2 8 11 14 20 23 21 21 21 22 25 26 27 26
5 6 5 4 5 4 3 2 2 3 4 3 4 6 6 6 5 5 4 3 3 3 2 3 3 3 3 2 2 2 3 1 1 2 2 3 2 2 15 27 22 12 8 6 6 7 3 1 3 6 5 4 4 3 3 5 5 5 5 6 8 7 4 2 2 3 5 5 6 6 4 1 2 0 6 12 12 12 16 22 23 23 22 22 26 29 29 31
6 5 4 5 8 6 4 4 3 4 5 4 5 6 5 5 6 8 8 5 4 4 3 3 2 2 2 2 1 0 1 1 1 1 1 2 1 2 12 23 19 11 9 11 11 9 4 1 3 5 7 8 8 6 5 4 4 2 3 6 9 9 9 5 3 4 5 3 6 6 3 2 1 5 10 13 13 12 14 19 22 26 28 26 26 28 30 32
3 2 3 4 6 8 8 8 6 5 4 4 5 4 3 3 4 8 9 5 6 6 4 4 4 1 1 1 2 3 1 2 1 1 2 3 1 2 8 17 15 13 13 13 15 10 2 1 2 2 4 5 3 2 1 3 7 6 5 8 9 9 10 7 3 5 4 4 5 4 3 6 7 9 13 14 15 15 15 17 20 24 29 30 30 30 31 33
2 1 1 2 4 6 7 8 6 5 4 3 2 2 3 4 5 1 6 4 4 6 4 3 3 0 1 0 2 4 2 2 2 3 2 2 2 3 5 10 10 13 13 13 15 9 1 2 3 3 2 1 0 1 1 2 8 8 8 10 10 8 9 9 6 4 5 5 5 4 6 8 10 14 16 17 17 16 16 20 22 23 24 27 32 33 31 31
2 3 3 3 3 2 2 5 6 6 8 5 2 3 5 7 10 5 2 4 2 5 4 2 1 2 3 1 1 3 4 2 1 2 2 2 3 4 4 2 2 7 9 9 9 5 1 4 3 3 2 1 1 1 1 1 3 4 5 9 11 11 11 12 10 6 8 7 4 7 11 9 9 16 20 19 18 18 19 22 22 23 24 27 32 34 32 32
4 5 5 6 5 4 6 11 11 9 9 7 2 2 5 8 10 7 3 3 2 1 2 0 1 6 6 1 2 2 3 2 1 2 1 2 2 2 3 2 0 2 5 6 5 1 1 4 3 3 3 3 3 0 3 4 3 2 2 4 6 9 12 11 8 6 6 4 0 9 15 8 3 12 18 17 18 19 21 22 22 25 29 29 31 33 33 33
6 5 7 9 8 8 10 11 9 6 6 5 2 2 4 6 8 8 5 3 2 3 3 3 5 9 6 0 3 3 2 1 2 3 3 3 2 1 2 3 3 2 3 5 4 0 2 3 2 3 2 2 3 2 2 4 4 4 2 1 2 6 7 4 3 3 3 1 2 8 11 4 0 8 15 17 20 21 22 25 27 29 31 30 29 31 32 34
10 8 8 8 6 6 7 6 5 4 3 3 2 3 4 4 6 8 4 2 2 3 3 3 6 7 4 1 5 6 4 3 3 4 4 4 3 3 2 2 7 7 4 3 3 1 1 1 1 3 4 1 2 3 2 2 4 5 2 3 5 6 4 2 2 3 4 5 7 7 6 5 5 12 16 18 21 23 23 26 29 30 32 32 30 29 31 34
14 11 9 6 3 4 5 5 4 3 3 3 3 5 5 5 6 7 3 0 2 4 3 2 5 5 2 4 8 8 9 5 1 1 2 4 6 6 3 4 9 9 6 5 2 1 3 4 2 3 4 2 1 2 1 0 4 4 1 3 5 3 3 3 1 2 5 7 9 6 4 5 11 16 17 17 19 22 24 29 32 32 32 31 32 33 33 36
Wind_Direction
299 307 304 294 290 292 295 299 302 309 311 312 314 312 311 311 313 316 317 320 320 321 321 318 316 310 305 301 295 289 283 280 273 261 253 247 242 236 230 218 211 214 219 216 207 206 205 208 206 205 198 184 185 179 174 171 166 168 168 210 217 200 180 174 188 188 281 316 296 324 350 329 332 88 110 119 137 141 147 149 157 166 157 164 169 165 167 168
285 298 305 302 298 293 292 292 294 303 309 312 313 310 311 310 311 313 314 319 320 323 321 315 312 308 307 304 296 290 288 288 280 266 253 252 250 237 226 222 215 210 212 215 209 205 203 204 201 195 184 175 176 174 174 171 173 180 148 215 219 173 161 187 203 219 247 286 308 312 337 328 303 136 137 140 149 150 143 133 137 134 144 162 165 165 168 167
277 284 290 295 300 300 296 291 289 293 299 306 307 307 308 308 312 310 310 316 320 323 321 318 315 309 305 304 299 296 297 297 289 272 254 254 252 238 224 219 219 213 210 215 208 206 208 204 199 188 176 170 171 173 177 176 182 194 189 224 226 173 200 234 237 251 256 279 303 304 325 330 300 171 167 159 162 166 160 150 147 146 151 160 163 167 169 166
276 276 277 281 287 294 298 296 292 288 289 295 299 302 303 304 309 307 308 314 318 320 317 317 319 315 312 309 302 303 314 309 289 264 248 249 249 239 229 219 217 215 213 215 202 200 204 196 193 183 174 167 167 173 180 183 181 180 195 226 143 157 214 236 246 260 270 278 281 297 309 319 322 210 176 160 168 186 192 180 168 163 159 160 164 169 169 164
286 279 275 273 275 281 289 293 293 289 287 286 289 295 296 300 303 303 306 311 316 315 312 313 314 317 317 311 305 311 335 320 246 217 224 222 228 234 228 218 216 214 212 211 197 188 189 185 184 179 176 164 161 170 189 189 182 171 196 224 132 159 216 249 266 275 281 286 279 293 299 309 320 221 176 170 184 201 200 197 179 169 164 164 168 169 167 165
299 290 282 274 272 272 276 283 289 289 289 285 282 285 289 294 297 300 303 307 310 310 314 315 313 318 314 310 311 307 246 251 166 177 186 182 208 230 229 221 213 211 210 207 196 185 177 174 178 178 176 165 172 179 182 185 190 208 195 188 214 213 229 261 273 279 281 282 278 277 290 304 279 189 177 184 206 252 210 194 173 169 167 165 166 166 165 164
309 302 293 284 277 272 270 272 279 283 287 288 282 279 280 285 291 295 300 303 300 302 313 316 319 318 311 312 311 298 247 236 201 181 177 157 215 237 234 226 212 207 207 202 194 186 177 172 177 177 170 161 188 191 170 175 192 226 214 162 226 224 235 260 266 275 279 275 277 280 287 280 216 177 177 200 223 248 214 187 165 164 166 162 160 161 161 160
317 310 301 295 287 279 272 267 268 274 282 285 282 280 276 277 285 290 295 301 299 299 307 313 321 315 310 316 316 307 261 237 218 207 216 257 292 306 248 224 212 204 203 203 197 188 179 177 179 175 175 174 183 186 170 170 192 223 215 177 235 237 248 264 270 274 277 279 283 282 287 264 218 181 175 210 215 185 178 169 161 161 162 160 157 157 157 160
318 315 307 300 295 290 281 271 266 267 273 278 280 280 276 273 276 281 289 298 299 295 300 308 312 309 308 312 319 305 264 246 233 229 240 258 279 312 327 229 209 202 201 203 198 191 182 183 184 177 185 181 176 183 181 186 199 208 203 205 236 248 257 266 272 273 276 281 275 238 85 144 163 165 181 207 166 147 153 155 157 162 160 156 155 156 159 165
318 316 311 304 299 296 291 284 274 267 266 270 276 279 276 272 268 273 283 293 297 292 297 305 303 306 303 302 317 288 259 257 246 237 239 251 263 284 311 289 207 197 199 198 194 192 187 190 188 176 183 178 175 178 177 193 191 183 195 215 238 248 262 264 264 269 275 275 252 184 153 150 136 191 217 195 168 154 151 152 156 160 156 150 149 153 162 170
318 316 314 310 304 299 294 291 286 275 266 264 270 275 274 271 267 268 276 287 294 292 294 301 303 298 294 292 272 250 257 255 237 235 235 246 256 260 279 293 211 192 196 196 192 191 191 195 185 171 171 174 169 163 172 194 183 170 180 206 235 247 262 252 255 267 267 272 240 181 159 189 229 240 219 179 169 158 152 151 153 156 150 145 147 152 166 178
316 314 313 311 309 304 298 293 290 284 273 264 264 270 272 269 266 264 267 279 289 290 290 297 301 286 288 281 252 242 257 248 240 237 226 236 240 234 245 276 219 192 191 195 192 188 187 189 185 181 170 163 160 151 181 182 166 156 162 205 215 230 252 227 241 255 227 269 214 165 151 227 213 260 210 171 166 160 154 148 146 152 149 145 148 147 152 166
311 311 309 308 309 309 305 297 291 287 279 268 263 266 269 268 263 261 261 268 281 285 287 292 293 286 288 271 256 259 278 262 252 238 214 227 222 207 215 244 219 194 188 196 195 185 180 175 183 190 171 161 157 133 157 160 158 148 151 248 201 208 236 206 224 217 199 268 187 164 188 208 195 291 180 167 166 155 144 138 137 146 150 145 146 141 132 145
307 307 305 303 305 307 308 303 295 288 282 273 265 263 266 268 262 259 258 258 269 278 283 288 287 286 280 270 271 281 282 259 247 238 226 232 212 187 189 186 203 194 184 192 196 187 181 172 173 179 170 167 150 119 118 110 160 151 154 209 207 212 207 178 204 171 192 241 168 178 239 178 135 138 158 168 168 151 130 132 142 148 154 153 156 153 142 157
309 306 303 301 300 301 305 305 299 291 285 277 269 263 262 266 263 258 254 251 257 268 278 285 285 283 276 279 285 288 271 253 245 245 243 239 213 184 183 172 179 189 180 183 191 188 185 184 175 164 170 173 149 140 128 107 107 130 183 182 179 212 212 224 206 189 207 176 147 190 243 133 108 95 80 79 110 106 91 118 148 153 157 161 165 166 165 171
312 309 305 301 297 296 300 303 301 294 288 281 272 265 260 263 264 256 252 249 250 258 271 283 283 281 278 285 289 277 259 250 247 247 242 239 216 186 173 168 173 178 178 177 181 184 185 187 180 167 174 170 164 156 139 155 152 174 208 183 167 197 215 219 171 218 251 128 125 209 249 73 94 93 89 92 76 64 62 51 35 128 141 146 150 160 177 179
316 313 309 304 298 294 295 300 301 295 292 285 274 267 261 262 261 255 253 248 244 247 261 273 283 275 260 269 283 280 270 248 240 228 217 223 214 191 166 158 170 170 168 168 169 172 174 173 171 173 181 159 169 166 169 191 183 171 192 164 179 208 213 196 146 27 304 182 137 185 221 76 99 103 96 108 108 90 84 88 62 61 122 143 151 161 178 177
318 315 310 306 301 295 293 296 296 294 293 288 279 268 262 260 258 255 250 241 233 237 254 246 242 289 260 262 273 271 269 256 235 221 209 205 203 193 174 162 168 162 151 149 156 159 159 160 163 166 173 175 182 186 189 189 162 157 167 165 183 215 227 236 164 51 326 187 118 169 177 95 104 109 97 98 113 115 111 127 146 161 149 141 168 174 172 165
317 314 310 305 302 296 292 292 291 292 292 288 280 269 264 261 256 252 243 230 210 199 240 208 194 211 274 295 288 273 271 272 264 235 207 193 191 187 180 175 166 158 147 143 158 161 154 141 164 182 186 181 184 190 181 126 143 155 165 170 169 185 213 255 142 43 359 112 79 43 131 112 128 120 113 113 112 120 127 139 154 173 189 191 187 182 168 155
315 312 311 306 302 296 290 287 287 288 289 287 280 269 262 247 242 248 234 225 218 215 225 205 203 222 257 278 286 295 292 279 265 228 188 181 179 174 174 171 160 158 157 152 155 164 164 165 189 191 178 168 166 169 145 108 149 150 158 167 164 191 198 246 61 37 348 119 70 37 88 107 140 126 117 127 122 124 137 148 158 169 176 179 181 178 166 157
315 312 311 308 303 296 288 284 283 284 284 282 274 262 248 226 217 223 211 224 232 229 233 238 230 238 257 266 272 288 303 294 258 212 181 174 171 168 169 167 161 164 162 141 126 146 177 193 193 167 153 153 149 138 121 110 128 140 170 170 174 210 184 86 3 16 341 140 84 94 102 88 104 122 117 130 134 133 146 157 159 159 168 175 173 163 149 139
315 313 314 309 304 298 291 285 282 281 280 274 263 252 245 236 225 205 186 236 246 235 233 238 240 247 258 262 265 275 287 285 263 231 186 175 174 174 167 167 171 158 146 140 129 147 189 198 162 145 148 143 138 144 137 128 119 124 164 165 177 207 149 158 15 19 2 87 124 115 104 91 88 107 108 120 136 152 162 162 159 159 163 164 156 147 145 136
318 317 316 311 307 302 294 288 283 280 276 269 260 249 245 243 229 207 194 274 269 239 226 228 231 237 249 256 259 261 252 244 261 245 198 182 182 179 167 166 166 148 153 169 163 165 186 181 150 146 147 140 144 162 153 145 143 124 139 169 179 155 127 198 56 33 28 49 121 122 102 97 111 108 94 100 126 152 166 134 136 153 146 131 142 146 155 160
323 322 319 316 311 304 297 292 286 280 274 265 256 245 244 242 225 199 189 247 285 242 227 231 231 231 242 251 249 241 230 227 242 231 198 186 180 175 169 159 150 154 166 169 165 161 148 144 146 147 151 148 152 165 166 173 185 194 176 189 176 116 93 108 60 45 60 63 107 127 110 93 123 138 113 101 128 144 142 110 99 129 137 136 153 163 164 165
327 326 324 320 315 309 302 296 286 278 268 254 247 237 235 231 212 191 187 237 274 231 229 232 228 234 240 240 229 221 224 234 237 225 193 186 180 163 157 160 158 167 161 145 154 162 140 145 149 150 157 154 153 166 176 177 177 202 219 221 209 140 113 81 87 144 115 106 108 157 174 129 136 163 138 127 149 144 134 126 103 106 141 147 157 170 163 160
328 329 328 323 322 319 310 301 289 282 263 242 240 227 217 209 195 192 183 271 268 178 175 199 205 229 224 206 198 195 206 251 239 222 190 185 182 161 147 163 161 158 151 138 152 168 141 156 157 154 155 155 157 172 182 176 173 192 201 200 200 133 122 112 108 135 175 150 78 309 244 146 161 177 151 156 168 151 134 134 128 134 157 165 163 166 161 161
327 332 331 328 328 327 321 304 289 281 248 231 224 200 186 179 171 174 175 292 263 163 137 173 185 201 195 185 177 170 171 216 208 208 196 184 180 175 167 165 146 142 148 141 168 176 141 159 170 160 152 159 170 172 181 180 174 181 175 168 165 153 160 156 118 99 73 109 88 319 256 125 168 177 154 164 170 156 139 137 148 158 167 171 166 163 168 175
326 332 333 331 330 330 330 305 274 259 156 197 190 164 129 141 160 159 183 268 179 135 129 173 179 169 173 176 171 168 186 152 158 193 190 179 176 182 187 173 147 141 158 172 170 144 138 163 172 161 158 174 172 149 160 172 174 173 167 170 168 167 175 175 207 214 65 193 207 165 193 197 161 148 150 166 173 165 158 158 166 172 172 170 165 165 172 180
323 329 333 333 331 332 332 297 192 82 66 83 143 162 120 130 156 157 247 242 146 136 131 150 154 150 152 163 176 188 211 175 171 167 171 179 179 171 170 167 143 133 151 186 158 130 163 175 170 163 169 177 155 133 158 172 178 144 146 142 124 118 115 114 235 220 93 249 222 166 188 220 171 156 162 170 186 187 179 177 174 172 172 172 169 170 176 179
320 324 329 330 330 336 354 350 141 77 43 59 112 169 156 142 158 174 208 209 166 126 117 147 154 149 148 151 186 210 232 308 138 144 156 176 176 157 121 146 141 129 130 147 153 137 129 166 167 172 175 158 143 148 168 172 141 129 136 126 105 86 86 78 352 141 199 239 207 170 189 222 222 174 172 183 200 193 180 174 173 171 173 177 174 172 176 174
319 317 319 324 328 341 25 50 90 64 30 46 107 154 161 164 200 204 176 275 327 55 87 145 139 136 154 163 182 201 226 294 148 149 150 160 174 179 138 145 145 132 142 164 166 133 106 148 166 179 161 142 133 148 166 152 140 140 141 140 137 130 123 142 112 150 229 228 134 166 184 205 227 186 182 203 214 193 178 171 172 173 175 177 173 166 166 162
314 313 311 309 314 331 8 41 46 32 34 65 120 154 169 191 223 237 236 306 325 17 45 126 142 151 167 179 174 177 195 226 168 167 157 155 171 182 164 163 160 154 165 171 163 136 130 151 162 157 164 157 145 149 144 135 164 163 152 156 168 170 167 200 190 186 229 206 54 161 174 196 231 112 178 209 219 200 183 177 176 175 174 168 154 137 132 139
308 305 302 294 296 306 292 292 344 6 58 84 133 161 204 242 216 249 273 321 27 310 346 87 153 168 166 175 178 174 185 172 174 171 156 154 158 170 192 143 136 142 151 155 152 147 144 182 180 153 167 171 164 166 167 167 183 180 167 172 182 176 174 201 196 192 236 155 53 125 182 215 216 100 167 220 229 194 174 174 176 172 167 151 134 129 127 130
306 299 297 294 297 290 268 275 295 276 123 121 144 167 241 247 263 270 302 353 349 274 311 359 123 156 164 180 169 168 190 195 176 171 155 159 164 174 187 157 138 101 112 145 162 166 164 168 174 163 153 173 178 180 161 147 172 183 165 176 185 180 186 202 194 196 188 135 74 127 184 216 159 89 296 228 181 158 156 160 161 155 148 136 131 138 140 141
312 303 309 304 298 291 277 278 275 248 157 142 143 187 241 252 303 317 37 355 326 317 322 329 134 147 172 205 160 178 216 222 167 171 161 166 171 173 169 163 175 133 140 160 169 167 166 118 165 173 147 170 177 164 134 143 168 194 99 175 195 182 153 130 167 149 127 127 133 167 204 280 169 347 334 151 145 143 143 143 140 135 135 134 135 141 145 148
326 309 322 308 291 296 292 270 235 204 165 164 182 234 261 291 324 350 23 345 319 330 328 302 149 145 174 187 161 189 221 223 160 169 158 161 166 167 157 140 170 162 154 158 129 159 159 121 171 169 149 183 174 154 164 173 165 144 181 191 180 116 111 117 106 51 80 198 180 148 135 128 212 303 140 140 136 134 134 133 135 137 140 140 141 146 149 150
0 346 356 336 295 308 314 246 187 192 184 196 232 250 270 295 322 358 355 322 304 307 315 164 152 163 176 176 167 184 199 176 160 170 156 160 163 164 157 140 174 164 149 144 127 213 166 134 167 174 179 201 175 162 180 191 146 146 188 176 111 55 23 140 176 129 184 211 185 126 168 171 179 183 150 143 138 140 141 139 141 145 147 147 148 152 154 152
38 30 26 26 50 89 31 352 180 189 196 219 250 253 225 204 233 265 294 301 296 280 292 174 148 293 166 171 167 178 186 167 161 162 156 168 182 164 154 150 186 165 152 154 136 220 192 143 150 194 188 178 162 172 182 193 200 174 171 153 133 204 202 173 185 183 191 205 172 142 173 192 205 177 156 154 155 157 156 151 151 155 157 154 151 153 153 151
48 27 27 27 38 67 61 97 180 203 214 223 245 249 240 240 248 241 251 279 284 265 283 3 29 8 173 171 155 170 186 163 157 152 156 178 196 172 164 155 170 170 160 158 141 144 210 156 156 204 190 152 152 191 187 178 202 125 155 165 186 248 191 175 174 177 201 200 173 158 169 209 222 180 171 173 172 170 166 161 161 163 162 158 152 153 152 151
38 53 25 13 17 56 79 164 211 229 233 246 266 260 281 284 263 245 235 246 267 265 278 352 2 14 117 142 146 162 164 145 152 141 154 168 123 172 191 166 153 167 158 140 146 149 117 187 169 136 134 168 173 200 193 177 169 167 176 182 181 107 138 183 163 82 239 195 169 190 194 205 201 181 189 187 178 174 170 165 163 162 161 158 154 153 152 152
27 71 25 12 29 70 18 296 251 255 251 256 262 243 261 285 277 270 250 234 239 253 261 285 295 306 348 112 143 152 137 136 149 118 134 169 151 192 209 181 155 155 146 129 157 184 134 189 177 144 173 190 178 189 191 182 177 177 184 183 178 168 152 185 196 149 52 139 150 202 237 186 117 201 217 197 181 176 170 160 156 157 157 155 155 154 153 154
19 27 18 20 31 340 339 303 242 261 256 258 272 261 275 288 277 277 264 236 233 238 249 260 251 244 248 245 132 141 142 133 149 138 144 176 188 188 187 178 161 152 152 143 160 178 138 136 153 152 179 186 157 25 195 189 180 176 190 188 178 177 180 199 205 157 137 141 107 125 284 77 60 340 262 194 175 169 163 156 151 153 153 152 153 153 154 155
10 333 321 296 264 308 336 298 233 249 244 254 283 270 266 274 270 268 265 243 228 211 220 239 221 217 230 241 230 152 145 133 143 135 141 172 198 196 174 171 163 156 158 151 149 158 148 151 154 135 127 168 109 37 146 191 181 184 199 187 177 187 195 210 192 140 178 189 150 191 239 133 51 325 190 154 143 145 154 154 148 145 148 150 152 155 158 158
330 303 295 272 264 290 325 283 269 283 272 261 273 271 258 248 250 259 264 247 223 198 221 240 210 215 245 232 216 185 143 146 169 112 114 164 190 168 167 168 165 160 167 172 167 169 175 215 173 148 142 165 176 160 174 194 197 200 189 172 184 180 143 112 100 154 208 196 164 199 222 124 55 203 158 142 134 139 152 154 150 145 146 150 152 155 158 159
312 293 274 261 261 261 256 258 272 286 287 278 275 278 267 251 245 245 251 257 246 234 246 282 278 260 265 239 196 178 79 86 164 140 86 127 72 76 161 169 167 166 181 179 164 161 170 187 178 168 165 175 186 188 184 173 177 208 182 176 188 179 163 156 140 182 217 180 172 210 210 113 139 175 160 151 147 148 150 152 153 151 151 153 154 154 156 158
299 287 275 263 248 241 247 256 256 257 272 283 285 275 241 259 261 232 228 239 241 230 241 285 287 286 260 218 125 128 108 45 70 151 119 133 109 45 161 172 171 171 179 170 155 148 130 147 162 162 168 175 180 170 118 147 168 184 185 180 186 184 180 179 174 192 185 145 181 216 141 139 178 181 170 164 160 156 152 152 153 154 155 156 156 156 156 158
264 250 272 288 246 234 247 252 239 235 263 288 318 322 290 308 338 227 201 213 219 209 218 253 244 13 3 251 118 133 141 41 80 157 134 117 88 61 143 169 177 175 171 160 154 146 92 183 158 90 90 133 62 109 91 180 183 180 175 179 185 185 184 195 207 176 138 158 205 188 145 162 185 188 182 176 169 164 160 159 156 156 156 155 156 158 156 157
277 285 276 293 280 231 256 267 259 265 282 285 273 302 317 341 5 20 220 253 247 197 208 215 182 13 358 268 191 143 148 104 98 166 140 108 107 90 109 135 192 178 164 157 159 149 123 190 170 97 107 95 18 196 172 152 168 171 177 184 185 183 187 201 209 174 165 207 220 162 175 190 187 189 190 183 173 165 159 157 153 153 156 155 155 156 157 159
314 315 310 320 311 280 278 282 283 285 292 299 278 274 326 348 0 5 319 302 337 211 231 145 343 345 353 294 191 127 137 149 158 189 179 118 110 104 112 117 187 168 151 152 158 151 185 181 151 131 136 75 37 97 162 152 141 122 182 211 197 190 193 201 205 177 180 227 122 157 184 202 190 188 189 177 162 150 146 148 149 153 158 158 156 156 158 162
343 333 320 322 308 284 285 292 297 299 303 318 326 302 325 341 348 349 334 307 335 346 3 20 339 337 348 124 139 84 46 260 184 186 175 144 134 154 151 154 152 128 133 155 157 241 219 180 133 149 162 46 32 54 120 163 158 135 148 232 192 183 191 199 187 150 152 147 102 157 182 207 242 169 165 156 149 145 147 153 157 160 161 159 157 158 160 163
353 345 327 321 305 294 309 318 316 314 322 338 341 335 338 334 335 339 331 260 303 352 27 26 339 325 313 41 65 54 3 296 258 249 224 180 153 159 181 180 160 149 139 157 158 149 163 138 111 180 193 214 27 48 67 128 135 130 150 184 166 165 173 158 135 170 181 150 129 145 182 212 185 159 150 147 150 153 157 161 163 165 165 163 160 159 161 165
347 346 344 335 301 303 326 327 318 326 343 334 323 330 331 323 325 334 336 321 80 74 75 11 328 307 296 46 35 1 331 315 263 218 176 132 108 101 100 155 159 154 152 156 149 125 147 142 143 187 191 186 24 23 18 148 156 155 170 177 163 151 147 134 106 211 199 155 139 160 199 171 158 157 153 154 160 166 169 171 171 169 166 164 164 164 167 171